SCP
0 0 2 1 2 3 3 1 1 1 1 1 1 1 0 0 0 0 0 0 0 0 0 0 0 0 0 0 0 0 0 0 0 0 0 0 0 0 0 0 0 0 0
1 2 2 2 2 2 2 1 1 1 1 1 1 0 0 0 0 0 0 0 0 0 0 0 0 0 0 0 0 0 0 0 0 0 0 0 0 0 0 0 0 0 0
2 2 3 2 2 1 1 1 1 1 0 0 0 0 0 0 0 0 0 0 0 0 0 0 0 0 0 0 0 0 0 0 0 0 0 0 0 0 0 0 0 0 0
3 3 2 1 1 0 0 0 0 0 0 0 0 0 0 0 0 0 0 0 0 0 0 0 0 0 0 0 0 0 0 0 0 0 0 0 0 0 0 0 0 0 0
4 2 1 1 1 0 0 0 0 0 0 0 0 0 0 0 0 0 0 0 0 0 0 0 0 0 0 0 0 0 0 0 0 0 0 0 0 0 0 0 0 0 0
2 1 1 1 0 0 0 0 0 0 0 0 0 0 0 0 0 0 0 0 0 0 0 0 0 0 0 0 0 0 0 0 0 0 0 0 0 0 0 0 0 0 0
1 1 1 1 0 0 0 0 0 0 0 0 0 0 0 0 0 0 0 0 0 0 0 0 0 0 0 0 0 0 0 0 0 0 0 0 0 0 0 0 0 0 0
1 1 0 0 0 0 0 0 0 0 0 0 0 0 0 0 0 0 0 0 0 0 0 0 0 0 0 0 0 0 0 0 0 0 0 0 0 0 0 0 0 0 0
1 0 0 0 0 0 0 0 0 0 0 0 0 0 0 0 0 0 0 0 0 0 0 0 0 -0 -0 -0 0 0 0 0 0 0 0 0 0 0 0 0 0 0 0
0 0 0 0 0 0 0 0 0 0 0 0 0 0 0 0 0 0 0 0 0 0 0 0 -0 -0 -0 0 -0 0 0 0 0 0 0 0 0 0 0 0 0 0 0
0 0 0 0 0 0 0 0 0 0 0 0 0 0 0 0 0 0 -0 0 0 0 0 0 0 0 -0 -0 -0 0 0 0 0 0 0 0 0 0 0 0 0 0 0
0 0 0 0 0 0 0 0 0 0 0 0 0 0 0 0 0 0 0 0 -0 0 0 0 0 0 -0 -0 0 -0 -0 0 0 0 0 0 0 0 0 0 0 0 0
0 0 0 0 0 0 0 0 0 0 0 0 0 0 0 0 0 0 0 -0 -0 0 -0 -0 -0 0 -0 0 -0 -0 0 0 0 0 0 0 0 0 0 0 0 0 0
0 0 0 0 0 0 0 0 0 0 0 0 0 0 0 0 0 0 0 0 -0 -0 -0 -0 0 0 0 -0 0 0 0 0 0 0 0 0 0 0 0 0 0 0 0
0 0 0 0 0 0 0 0 0 0 0 -0 0 -0 -0 0 0 0 0 0 0 0 -0 -0 0 0 0 0 0 0 0 0 0 0 0 0 0 0 0 0 0 0 0
0 0 0 0 0 0 -0 0 -0 -0 -0 -0 -0 -0 -0 0 -0 -0 0 -0 -0 -0 0 0 0 0 0 0 0 0 0 0 0 0 0 0 0 0 0 0 0 0 0
0 0 0 0 0 -0 -0 -0 -0 0 -0 -0 -0 -0 -0 -0 -0 -0 -0 -0 0 0 0 0 0 0 0 0 0 0 0 0 0 0 0 0 0 0 0 0 0 0 0
0 0 0 0 -0 -0 -0 -0 0 0 0 0 -0 -0 -0 -0 -0 -0 -0 0 0 0 0 0 0 0 0 0 0 0 0 0 0 0 0 0 0 0 0 0 -0 -0 -0
0 0 0 0 -0 -0 -0 -0 -0 0 0 0 -0 -0 -0 -0 -0 -0 0 0 0 0 -0 0 -0 -0 0 0 0 0 0 0 0 0 0 0 0 0 0 0 -0 -0 0
0 0 0 0 -0 -0 -0 -0 0 0 0 0 0 -0 -0 0 0 -0 -0 -0 0 -0 -0 -0 -0 -0 0 0 0 0 0 0 0 0 0 0 0 0 0 0 0 0 0
0 0 0 0 -0 -0 -0 0 0 0 0 -0 -0 0 -0 -0 0 -0 -0 -0 -0 -0 -0 -0 -0 -0 -0 -0 0 0 0 0 0 -0 -0 -0 0 0 0 0 0 0 0
0 0 0 0 0 -0 -0 0 0 0 -0 0 0 -0 -0 -0 -0 -0 0 0 -0 -0 0 -0 -0 -0 -0 -0 -0 0 0 0 0 0 0 0 0 0 0 0 0 0 0
0 0 0 0 0 0 0 0 0 -0 -0 -0 -0 -0 -0 -0 -0 0 0 0 0 0 0 0 0 0 0 0 0 0 0 0 0 0 0 0 0 0 0 0 0 0 0
0 0 0 0 0 0 0 -0 0 -0 -0 -0 -0 -0 -0 0 0 0 0 0 0 0 0 0 0 0 0 0 0 0 0 0 0 0 0 0 0 0 0 0 0 0 0
0 0 0 0 0 0 0 0 -0 -0 0 0 0 0 0 0 0 0 0 0 0 0 -0 0 0 -0 -0 -0 0 0 0 0 0 0 0 0 0 0 0 0 0 0 0
0 0 0 0 0 0 -0 -0 0 0 0 0 0 0 0 0 -0 0 0 -0 -0 -0 -0 -0 -0 -0 -0 -0 -0 -0 0 0 0 0 0 0 0 0 0 0 0 0 0
Wind_Speed_500mb
71 64 64 61 52 55 62 62 57 54 58 44 43 46 48 40 34 28 24 23 25 20 20 20 20 24 26 24 27 23 22 23 18 21 22 23 28 28 49 25 25 25 30
54 53 48 41 44 53 61 58 56 57 54 46 47 48 44 36 25 26 24 24 24 18 16 21 20 20 22 22 23 28 23 22 23 25 33 29 25 34 37 28 26 29 30
46 46 42 45 48 53 54 50 55 59 58 53 49 48 41 34 30 30 28 25 23 19 16 18 20 20 18 18 21 27 25 24 22 23 35 35 33 33 38 33 32 33 32
51 48 47 44 48 54 55 57 58 59 53 50 48 45 38 31 32 29 28 30 24 21 17 19 21 21 21 22 23 25 29 27 28 26 30 39 37 32 35 37 38 36 38
58 52 49 51 50 58 58 55 55 53 50 48 45 36 30 31 24 19 25 25 20 18 18 21 22 21 19 25 27 32 29 31 26 28 29 44 41 40 37 44 45 45 42
58 55 59 63 62 59 55 58 52 52 52 47 40 37 31 31 30 21 20 20 21 21 21 23 23 23 22 25 23 33 24 25 30 31 34 42 48 45 41 41 46 46 44
60 65 69 66 58 49 51 50 53 54 47 43 40 38 36 31 35 25 24 24 25 21 21 23 24 23 21 21 26 20 32 20 21 17 28 37 52 52 47 46 41 53 54
66 70 68 54 53 55 55 51 51 47 44 42 44 36 33 30 34 26 26 26 24 21 23 25 23 22 22 24 29 25 26 29 23 19 23 29 45 43 42 45 49 52 48
71 64 64 54 60 52 51 48 51 49 43 40 38 35 32 33 30 27 29 27 26 24 21 21 19 17 20 25 25 27 34 31 25 18 15 24 35 42 44 43 49 59 50
71 67 59 56 52 55 53 50 47 45 43 41 36 27 27 26 27 26 26 24 23 20 18 17 14 15 24 27 27 26 31 27 26 22 26 30 38 43 39 40 47 56 60
59 58 55 53 55 58 56 46 44 44 41 36 30 27 25 24 23 23 20 17 17 18 20 17 13 23 24 25 20 19 20 22 23 21 30 35 35 40 41 47 49 52 55
57 64 61 56 55 51 49 43 42 41 39 38 35 33 29 23 22 22 18 17 12 15 19 18 19 25 28 27 22 17 17 21 23 27 32 35 36 39 41 43 48 45 50
61 59 59 55 48 43 45 44 43 38 40 41 38 35 28 24 25 24 22 20 16 15 15 17 23 30 31 26 23 21 16 20 23 29 35 37 33 32 42 39 41 38 41
62 61 64 55 53 45 42 37 40 40 36 38 37 32 26 23 25 25 22 20 19 18 15 18 28 36 29 32 28 23 14 11 20 27 35 35 35 39 41 41 41 42 39
59 63 70 60 51 51 43 40 35 29 26 30 33 28 23 20 25 23 19 16 17 19 16 23 37 41 35 37 37 27 18 11 20 29 34 37 37 40 44 41 41 39 37
73 79 68 57 53 48 44 48 38 30 27 21 23 23 20 15 19 24 23 17 14 17 17 32 45 46 41 40 32 26 20 16 16 27 31 33 37 43 45 41 43 42 32
80 71 58 54 50 41 43 45 47 38 31 27 28 26 21 19 20 14 23 19 16 19 19 35 44 45 47 42 33 23 21 20 18 21 26 30 34 43 44 47 48 39 29
63 54 53 51 41 39 35 38 39 39 40 37 32 30 25 20 20 20 24 23 21 20 29 42 43 42 44 44 29 23 22 22 16 23 23 27 32 40 41 42 47 41 30
62 54 53 47 45 38 35 35 34 35 38 39 35 30 26 23 20 20 25 24 19 19 26 35 44 44 44 45 32 27 21 25 21 22 23 26 31 39 39 40 46 36 26
54 52 45 47 44 38 39 38 34 37 39 42 38 28 27 28 32 33 30 24 17 17 23 28 31 34 38 43 36 33 27 23 18 17 21 21 25 32 40 36 37 33 30
56 46 43 45 42 37 38 35 35 37 39 39 33 26 23 27 30 34 32 26 19 18 16 17 22 29 30 31 34 27 27 22 19 19 18 16 26 28 33 32 35 33 29
54 42 41 42 43 38 37 30 31 37 38 40 34 29 26 30 33 28 25 25 18 10 10 12 16 23 23 22 30 21 20 19 20 17 12 11 16 21 24 25 25 28 29
51 42 43 40 41 39 38 29 32 35 40 43 38 39 40 38 32 24 21 21 22 19 17 19 21 22 22 24 25 24 22 20 20 17 17 17 14 17 19 21 20 24 31
49 45 49 43 43 43 37 38 37 34 46 47 43 45 41 34 26 20 16 16 19 14 18 25 22 22 25 24 20 16 14 13 13 16 19 18 22 26 28 29 35 39 45
48 42 44 49 44 43 40 49 46 42 46 45 50 50 45 37 28 20 14 11 13 17 23 24 20 22 21 21 19 17 15 14 13 12 14 22 31 38 39 40 37 30 28
58 52 53 46 43 59 58 55 57 54 52 53 59 55 49 42 31 29 27 21 22 25 27 26 23 26 22 18 16 18 16 15 16 17 17 15 18 21 25 21 23 25 31
Wind_Direction_500mb
220 226 233 235 237 240 232 231 237 225 213 209 199 197 202 202 201 213 223 225 220 217 231 236 236 235 231 229 229 226 227 227 227 205 196 181 191 171 169 174 182 184 186
206 217 224 230 232 222 230 233 218 210 205 195 191 195 192 194 208 227 225 228 214 221 242 231 227 226 230 238 234 231 234 223 222 199 181 178 179 173 182 189 185 186 187
207 206 216 223 221 226 217 209 201 198 197 184 187 188 187 193 214 224 219 223 211 223 234 233 227 220 226 235 236 226 225 215 205 205 187 188 178 179 179 183 184 184 183
199 200 207 211 208 199 195 196 201 200 189 180 185 185 189 206 211 217 223 209 212 226 239 239 228 228 234 236 235 229 221 218 199 201 201 190 184 182 187 182 178 180 178
190 188 194 190 183 188 190 190 179 178 177 176 176 184 196 190 195 188 190 200 221 233 241 232 225 226 241 251 244 235 218 217 207 200 200 183 187 184 193 188 184 179 174
183 187 182 181 177 180 183 169 170 169 172 175 179 185 187 189 187 201 208 221 238 253 249 225 223 222 265 250 226 218 211 214 212 207 208 199 194 194 191 193 190 173 166
186 179 174 171 172 170 172 171 171 175 173 177 182 187 187 199 201 205 207 224 243 254 236 224 226 261 266 234 217 217 208 214 226 232 224 212 195 191 189 191 193 185 178
178 168 164 164 167 164 164 168 169 172 175 178 179 186 189 193 205 215 212 224 238 235 229 224 239 267 257 219 207 210 202 194 203 224 226 230 210 190 195 202 195 190 181
168 165 164 169 166 169 168 165 171 174 179 182 180 185 190 198 205 213 223 226 228 226 228 226 250 258 218 202 192 195 185 185 175 155 165 182 183 193 199 194 192 181 183
167 162 164 170 171 165 166 169 174 175 176 182 186 195 199 212 215 215 224 225 223 214 219 226 244 202 183 184 174 181 180 180 183 179 170 173 183 192 199 200 195 190 188
161 170 165 161 166 168 168 173 178 183 187 189 195 194 201 203 208 215 214 215 207 206 206 214 201 180 175 174 170 194 207 195 188 194 183 176 172 185 192 192 198 199 198
161 158 163 163 159 170 173 174 182 186 191 190 189 189 189 197 195 208 194 180 198 203 207 196 181 180 171 172 172 185 194 200 192 190 185 179 179 184 186 190 197 198 207
164 165 164 150 157 166 175 182 185 192 191 187 188 188 191 192 196 194 185 190 202 185 192 185 179 172 170 175 184 185 199 196 196 185 179 176 173 165 166 173 186 194 204
170 172 165 159 165 170 179 187 186 181 185 190 187 187 193 196 195 195 191 193 191 185 195 191 178 170 175 180 181 175 185 216 199 179 170 167 167 174 179 179 183 193 202
171 169 166 164 166 168 170 170 175 178 185 191 193 190 199 217 201 194 194 193 199 201 210 196 176 176 175 182 167 167 174 180 173 171 173 171 174 174 175 181 187 188 194
171 164 165 167 167 168 170 166 167 182 179 179 182 189 177 172 186 192 183 194 203 207 203 182 181 180 179 177 174 172 176 173 170 180 181 186 185 180 175 172 175 171 178
166 163 165 167 167 168 175 177 172 174 173 174 177 184 185 187 196 189 180 203 200 196 188 177 182 180 185 180 175 179 181 179 184 184 188 189 192 180 182 177 179 180 172
161 162 164 164 164 165 173 179 183 179 171 169 173 177 186 195 201 190 187 193 188 182 186 186 186 185 187 186 183 185 185 187 186 188 187 189 192 186 186 190 187 186 183
155 153 161 165 170 165 162 172 178 177 174 172 170 171 185 186 183 185 190 188 182 183 185 195 193 194 198 191 190 189 202 196 197 190 194 199 198 201 200 194 194 198 210
152 154 160 171 167 162 161 165 165 170 171 172 177 187 184 184 174 174 169 162 158 161 177 192 193 199 205 200 196 196 202 204 211 209 207 212 211 212 207 201 202 210 224
157 157 171 174 168 168 167 160 162 171 177 182 182 184 183 175 162 161 160 158 147 128 135 162 182 186 188 192 196 196 202 210 218 210 201 200 208 207 202 210 219 231 240
161 166 181 181 176 173 168 156 162 173 177 178 175 167 160 157 152 155 158 164 155 151 127 120 148 167 172 179 192 197 188 198 200 201 197 187 188 190 197 212 228 241 256
164 177 181 177 175 172 167 160 166 175 172 167 162 151 150 152 158 153 156 162 164 162 143 139 141 150 160 169 172 182 190 191 194 200 207 205 200 224 235 245 253 259 266
168 170 178 184 178 173 172 167 170 170 165 161 158 155 151 149 158 162 157 180 180 183 160 158 160 165 170 169 174 180 181 184 205 211 215 224 239 254 263 266 270 270 274
171 184 181 188 187 184 177 172 169 160 160 162 155 156 160 162 168 170 167 187 179 171 166 169 178 177 178 188 195 207 213 230 241 257 252 252 252 254 259 264 258 245 242
185 187 177 199 214 195 184 181 179 174 170 169 175 174 176 176 181 181 180 187 176 167 165 170 186 192 200 208 223 234 240 231 235 245 261 266 254 241 226 220 237 255 275
Wind_Speed_850mb
71 64 64 61 52 55 62 62 57 54 58 44 43 46 48 40 34 28 24 23 25 20 20 20 20 24 26 24 27 23 22 23 18 21 22 23 28 28 49 25 25 25 30
54 53 48 41 44 53 61 58 56 57 54 46 47 48 44 36 25 26 24 24 24 18 16 21 20 20 22 22 23 28 23 22 23 25 33 29 25 34 37 28 26 29 30
46 46 42 45 48 53 54 50 55 59 58 53 49 48 41 34 30 30 28 25 23 19 16 18 20 20 18 18 21 27 25 24 22 23 35 35 33 33 38 33 32 33 32
51 48 47 44 48 54 55 57 58 59 53 50 48 45 38 31 32 29 28 30 24 21 17 19 21 21 21 22 23 25 29 27 28 26 30 39 37 32 35 37 38 36 38
58 52 49 51 50 58 58 55 55 53 50 48 45 36 30 31 24 19 25 25 20 18 18 21 22 21 19 25 27 32 29 31 26 28 29 44 41 40 37 44 45 45 42
58 55 59 63 62 59 55 58 52 52 52 47 40 37 31 31 30 21 20 20 21 21 21 23 23 23 22 25 23 33 24 25 30 31 34 42 48 45 41 41 46 46 44
60 65 69 66 58 49 51 50 53 54 47 43 40 38 36 31 35 25 24 24 25 21 21 23 24 23 21 21 26 20 32 20 21 17 28 37 52 52 47 46 41 53 54
66 70 68 54 53 55 55 51 51 47 44 42 44 36 33 30 34 26 26 26 24 21 23 25 23 22 22 24 29 25 26 29 23 19 23 29 45 43 42 45 49 52 48
71 64 64 54 60 52 51 48 51 49 43 40 38 35 32 33 30 27 29 27 26 24 21 21 19 17 20 25 25 27 34 31 25 18 15 24 35 42 44 43 49 59 50
71 67 59 56 52 55 53 50 47 45 43 41 36 27 27 26 27 26 26 24 23 20 18 17 14 15 24 27 27 26 31 27 26 22 26 30 38 43 39 40 47 56 60
59 58 55 53 55 58 56 46 44 44 41 36 30 27 25 24 23 23 20 17 17 18 20 17 13 23 24 25 20 19 20 22 23 21 30 35 35 40 41 47 49 52 55
57 64 61 56 55 51 49 43 42 41 39 38 35 33 29 23 22 22 18 17 12 15 19 18 19 25 28 27 22 17 17 21 23 27 32 35 36 39 41 43 48 45 50
61 59 59 55 48 43 45 44 43 38 40 41 38 35 28 24 25 24 22 20 16 15 15 17 23 30 31 26 23 21 16 20 23 29 35 37 33 32 42 39 41 38 41
62 61 64 55 53 45 42 37 40 40 36 38 37 32 26 23 25 25 22 20 19 18 15 18 28 36 29 32 28 23 14 11 20 27 35 35 35 39 41 41 41 42 39
59 63 70 60 51 51 43 40 35 29 26 30 33 28 23 20 25 23 19 16 17 19 16 23 37 41 35 37 37 27 18 11 20 29 34 37 37 40 44 41 41 39 37
73 79 68 57 53 48 44 48 38 30 27 21 23 23 20 15 19 24 23 17 14 17 17 32 45 46 41 40 32 26 20 16 16 27 31 33 37 43 45 41 43 42 32
80 71 58 54 50 41 43 45 47 38 31 27 28 26 21 19 20 14 23 19 16 19 19 35 44 45 47 42 33 23 21 20 18 21 26 30 34 43 44 47 48 39 29
63 54 53 51 41 39 35 38 39 39 40 37 32 30 25 20 20 20 24 23 21 20 29 42 43 42 44 44 29 23 22 22 16 23 23 27 32 40 41 42 47 41 30
62 54 53 47 45 38 35 35 34 35 38 39 35 30 26 23 20 20 25 24 19 19 26 35 44 44 44 45 32 27 21 25 21 22 23 26 31 39 39 40 46 36 26
54 52 45 47 44 38 39 38 34 37 39 42 38 28 27 28 32 33 30 24 17 17 23 28 31 34 38 43 36 33 27 23 18 17 21 21 25 32 40 36 37 33 30
56 46 43 45 42 37 38 35 35 37 39 39 33 26 23 27 30 34 32 26 19 18 16 17 22 29 30 31 34 27 27 22 19 19 18 16 26 28 33 32 35 33 29
54 42 41 42 43 38 37 30 31 37 38 40 34 29 26 30 33 28 25 25 18 10 10 12 16 23 23 22 30 21 20 19 20 17 12 11 16 21 24 25 25 28 29
51 42 43 40 41 39 38 29 32 35 40 43 38 39 40 38 32 24 21 21 22 19 17 19 21 22 22 24 25 24 22 20 20 17 17 17 14 17 19 21 20 24 31
49 45 49 43 43 43 37 38 37 34 46 47 43 45 41 34 26 20 16 16 19 14 18 25 22 22 25 24 20 16 14 13 13 16 19 18 22 26 28 29 35 39 45
48 42 44 49 44 43 40 49 46 42 46 45 50 50 45 37 28 20 14 11 13 17 23 24 20 22 21 21 19 17 15 14 13 12 14 22 31 38 39 40 37 30 28
58 52 53 46 43 59 58 55 57 54 52 53 59 55 49 42 31 29 27 21 22 25 27 26 23 26 22 18 16 18 16 15 16 17 17 15 18 21 25 21 23 25 31
Wind_Direction_850mb
220 226 233 235 237 240 232 231 237 225 213 209 199 197 202 202 201 213 223 225 220 217 231 236 236 235 231 229 229 226 227 227 227 205 196 181 191 171 169 174 182 184 186
206 217 224 230 232 222 230 233 218 210 205 195 191 195 192 194 208 227 225 228 214 221 242 231 227 226 230 238 234 231 234 223 222 199 181 178 179 173 182 189 185 186 187
207 206 216 223 221 226 217 209 201 198 197 184 187 188 187 193 214 224 219 223 211 223 234 233 227 220 226 235 236 226 225 215 205 205 187 188 178 179 179 183 184 184 183
199 200 207 211 208 199 195 196 201 200 189 180 185 185 189 206 211 217 223 209 212 226 239 239 228 228 234 236 235 229 221 218 199 201 201 190 184 182 187 182 178 180 178
190 188 194 190 183 188 190 190 179 178 177 176 176 184 196 190 195 188 190 200 221 233 241 232 225 226 241 251 244 235 218 217 207 200 200 183 187 184 193 188 184 179 174
183 187 182 181 177 180 183 169 170 169 172 175 179 185 187 189 187 201 208 221 238 253 249 225 223 222 265 250 226 218 211 214 212 207 208 199 194 194 191 193 190 173 166
186 179 174 171 172 170 172 171 171 175 173 177 182 187 187 199 201 205 207 224 243 254 236 224 226 261 266 234 217 217 208 214 226 232 224 212 195 191 189 191 193 185 178
178 168 164 164 167 164 164 168 169 172 175 178 179 186 189 193 205 215 212 224 238 235 229 224 239 267 257 219 207 210 202 194 203 224 226 230 210 190 195 202 195 190 181
168 165 164 169 166 169 168 165 171 174 179 182 180 185 190 198 205 213 223 226 228 226 228 226 250 258 218 202 192 195 185 185 175 155 165 182 183 193 199 194 192 181 183
167 162 164 170 171 165 166 169 174 175 176 182 186 195 199 212 215 215 224 225 223 214 219 226 244 202 183 184 174 181 180 180 183 179 170 173 183 192 199 200 195 190 188
161 170 165 161 166 168 168 173 178 183 187 189 195 194 201 203 208 215 214 215 207 206 206 214 201 180 175 174 170 194 207 195 188 194 183 176 172 185 192 192 198 199 198
161 158 163 163 159 170 173 174 182 186 191 190 189 189 189 197 195 208 194 180 198 203 207 196 181 180 171 172 172 185 194 200 192 190 185 179 179 184 186 190 197 198 207
164 165 164 150 157 166 175 182 185 192 191 187 188 188 191 192 196 194 185 190 202 185 192 185 179 172 170 175 184 185 199 196 196 185 179 176 173 165 166 173 186 194 204
170 172 165 159 165 170 179 187 186 181 185 190 187 187 193 196 195 195 191 193 191 185 195 191 178 170 175 180 181 175 185 216 199 179 170 167 167 174 179 179 183 193 202
171 169 166 164 166 168 170 170 175 178 185 191 193 190 199 217 201 194 194 193 199 201 210 196 176 176 175 182 167 167 174 180 173 171 173 171 174 174 175 181 187 188 194
171 164 165 167 167 168 170 166 167 182 179 179 182 189 177 172 186 192 183 194 203 207 203 182 181 180 179 177 174 172 176 173 170 180 181 186 185 180 175 172 175 171 178
166 163 165 167 167 168 175 177 172 174 173 174 177 184 185 187 196 189 180 203 200 196 188 177 182 180 185 180 175 179 181 179 184 184 188 189 192 180 182 177 179 180 172
161 162 164 164 164 165 173 179 183 179 171 169 173 177 186 195 201 190 187 193 188 182 186 186 186 185 187 186 183 185 185 187 186 188 187 189 192 186 186 190 187 186 183
155 153 161 165 170 165 162 172 178 177 174 172 170 171 185 186 183 185 190 188 182 183 185 195 193 194 198 191 190 189 202 196 197 190 194 199 198 201 200 194 194 198 210
152 154 160 171 167 162 161 165 165 170 171 172 177 187 184 184 174 174 169 162 158 161 177 192 193 199 205 200 196 196 202 204 211 209 207 212 211 212 207 201 202 210 224
157 157 171 174 168 168 167 160 162 171 177 182 182 184 183 175 162 161 160 158 147 128 135 162 182 186 188 192 196 196 202 210 218 210 201 200 208 207 202 210 219 231 240
161 166 181 181 176 173 168 156 162 173 177 178 175 167 160 157 152 155 158 164 155 151 127 120 148 167 172 179 192 197 188 198 200 201 197 187 188 190 197 212 228 241 256
164 177 181 177 175 172 167 160 166 175 172 167 162 151 150 152 158 153 156 162 164 162 143 139 141 150 160 169 172 182 190 191 194 200 207 205 200 224 235 245 253 259 266
168 170 178 184 178 173 172 167 170 170 165 161 158 155 151 149 158 162 157 180 180 183 160 158 160 165 170 169 174 180 181 184 205 211 215 224 239 254 263 266 270 270 274
171 184 181 188 187 184 177 172 169 160 160 162 155 156 160 162 168 170 167 187 179 171 166 169 178 177 178 188 195 207 213 230 241 257 252 252 252 254 259 264 258 245 242
185 187 177 199 214 195 184 181 179 174 170 169 175 174 176 176 181 181 180 187 176 167 165 170 186 192 200 208 223 234 240 231 235 245 261 266 254 241 226 220 237 255 275